Tracking 30922 objects as of 2-Jul-2025
HD Live streaming from Space Station
objects crossing your sky now

COSMOS 249 DEB

Track COSMOS 249 DEB now!
10-day predictions


NORAD ID: 3923
Int'l Code: 1968-091BR
Perigee: 640.0 km
Apogee: 1,566.8 km
Inclination: 62.2 °
Period: 107.2 minutes
Semi major axis: 7474 km
RCS: 0.0428 m2 (small)
Launch date: October 20, 1968
Source: Commonwealth of Independent States (former USSR) (CIS)
Launch site: TYURATAM MISSILE AND SPACE COMPLEX (TTMTR)

Note: This is SATELLITE DEBRIS
Your satellite tracking list
FLOCK 4X 20
Track 1 satellite(s)




NASA's NSSDC Master Catalog

Two Line Element Set (TLE):
1 03923U 68091BR  25181.68601698  .00001589  00000-0  91737-3 0  9995
2 03923  62.2248 292.4203 0619978 121.8439 244.4470 13.43499223669357
Source of the keplerian elements: AFSPC